Weather History for Peru, IL

Change the Weather History Date:

Sunday, July 28, 2013

  Actual Average Record
Temperature  
Mean Temperature 62 °F -  
Max Temperature 71 °F 84 °F 98 °F (2006)
Min Temperature 52 °F 62 °F 51 °F (1984)
Degree Days  
Heating Degree Days 4    
Growing Degree Days 12 (Base 50)    
Moisture  
Dew Point 49 °F    
Average Humidity 67    
Maximum Humidity 84    
Minimum Humidity 46    
Precipitation  
Precipitation 0.00 in - - ()
Sea Level Pressure  
Sea Level Pressure 29.97 in    
Wind  
Wind Speed 9 mph (West)    
Max Wind Speed 17 mph    
Max Gust Speed 25 mph    
Visibility 10 miles    
Events Rain    
Averages and records for this station are not official NWS values.
T = Trace of Precipitation, MM = Missing Value Source: NWS Daily Summary

Daily Weather History Graph

Daily Weather History Graph

Search for Another Location

Airport:

Trip Planner

Search our weather history database for the weather conditions in past years. The results will help you decide how hot, cold, wet, or windy it might be!

Date:

Astronomy

Jul. 28, 2013 Rise Set
Actual Time 5:48 AM CDT 8:17 PM CDT
Civil Twilight 5:16 AM CDT 8:48 PM CDT
Nautical Twilight 4:37 AM CDT 9:27 PM CDT
Astronomical Twilight 3:53 AM CDT 10:11 PM CDT
Moon 11:33 PM CDT (7/28) 12:35 PM CDT (7/28)
Length of Visible Light 15h 32m
Length of Day
14h 29m
Waning Gibbous, 60% of the Moon is Illuminated
Jul 28
Waning Gibbous
Jul 29
Last Quarter
Aug 6
New
Aug 14
First Quarter
Aug 20
Full

Hourly Weather History & Observations

Time (CDT) Temp. Dew Point Humidity Pressure Visibility Wind Dir Wind Speed Gust Speed Precip Events Conditions
12:15 AM 52.7 °F 48.0 °F 84% 29.96 in 10.0 mi West 8.1 mph - N/A   Clear
12:35 AM 52.3 °F 47.7 °F 84% 29.95 in 10.0 mi West 8.1 mph - N/A   Clear
12:55 AM 52.7 °F 47.3 °F 82% 29.94 in 10.0 mi West 9.2 mph - N/A   Clear
1:15 AM 52.2 °F 46.9 °F 82% 29.94 in 10.0 mi West 8.1 mph - N/A   Clear
1:35 AM 52.5 °F 47.5 °F 83% 29.93 in 10.0 mi West 6.9 mph - N/A   Scattered Clouds
1:55 AM 53.1 °F 47.7 °F 82% 29.93 in 10.0 mi West 8.1 mph - N/A   Mostly Cloudy
2:15 AM 52.2 °F 47.3 °F 83% 29.93 in 10.0 mi West 5.8 mph - N/A   Mostly Cloudy
2:35 AM 52.2 °F 47.5 °F 84% 29.92 in 10.0 mi WSW 5.8 mph - N/A   Overcast
2:55 AM 52.7 °F 47.3 °F 82% 29.92 in 10.0 mi WSW 6.9 mph - N/A   Mostly Cloudy
3:15 AM 52.2 °F 47.3 °F 83% 29.92 in 10.0 mi WSW 8.1 mph - N/A   Scattered Clouds
3:35 AM 53.4 °F 48.4 °F 83% 29.92 in 10.0 mi WSW 5.8 mph - N/A   Mostly Cloudy
3:55 AM 54.7 °F 48.7 °F 80% 29.91 in 10.0 mi WSW 5.8 mph - N/A   Overcast
4:15 AM 55.4 °F 48.4 °F 77% 29.92 in 10.0 mi WSW 4.6 mph - N/A   Overcast
4:35 AM 55.9 °F 49.6 °F 79% 29.92 in 10.0 mi WSW 5.8 mph - N/A Rain Rain
4:55 AM 55.8 °F 49.3 °F 79% 29.92 in 10.0 mi WSW 5.8 mph - N/A   Overcast
5:15 AM 55.8 °F 49.6 °F 80% 29.91 in 10.0 mi SW 4.6 mph - N/A   Overcast
5:35 AM 55.4 °F 50.0 °F 82% 29.92 in 10.0 mi SW 5.8 mph - N/A   Overcast
5:55 AM 55.8 °F 50.0 °F 81% 29.92 in 10.0 mi WSW 5.8 mph - N/A   Overcast
6:15 AM 56.3 °F 50.0 °F 79% 29.92 in 10.0 mi WSW 5.8 mph - N/A   Overcast
6:35 AM 56.3 °F 49.6 °F 78% 29.93 in 10.0 mi West 6.9 mph - N/A   Overcast
6:55 AM 56.3 °F 50.0 °F 79% 29.93 in 10.0 mi West 6.9 mph - N/A   Overcast
7:15 AM 56.5 °F 50.0 °F 79% 29.93 in 10.0 mi West 6.9 mph - N/A   Overcast
7:35 AM 57.4 °F 50.9 °F 79% 29.94 in 10.0 mi West 9.2 mph - N/A   Overcast
7:55 AM 58.3 °F 51.1 °F 77% 29.95 in 10.0 mi West 9.2 mph 16.1 mph N/A   Overcast
8:15 AM 59.9 °F 52.2 °F 76% 29.95 in 10.0 mi WNW 9.2 mph - N/A   Mostly Cloudy
8:35 AM 60.6 °F 51.1 °F 71% 29.96 in 10.0 mi WNW 15.0 mph - N/A   Scattered Clouds
8:55 AM 61.0 °F 50.0 °F 67% 29.96 in 10.0 mi NW 17.3 mph - N/A   Scattered Clouds
9:15 AM 62.6 °F 50.4 °F 64% 29.96 in 10.0 mi WNW 13.8 mph 18.4 mph N/A   Mostly Cloudy
9:35 AM 61.9 °F 49.3 °F 63% 29.95 in 10.0 mi WNW 13.8 mph - N/A   Mostly Cloudy
9:55 AM 63.1 °F 49.5 °F 61% 29.95 in 10.0 mi WNW 11.5 mph 18.4 mph N/A   Scattered Clouds
10:15 AM 63.3 °F 48.7 °F 59% 29.96 in 10.0 mi WNW 15.0 mph 21.9 mph N/A   Scattered Clouds
10:35 AM 64.2 °F 47.8 °F 55% 29.96 in 10.0 mi WNW 12.7 mph 25.3 mph N/A   Mostly Cloudy
10:55 AM 64.8 °F 48.6 °F 56% 29.97 in 10.0 mi WNW 12.7 mph 24.2 mph N/A   Scattered Clouds
11:15 AM 65.3 °F 49.3 °F 56% 29.97 in 10.0 mi WNW 13.8 mph 21.9 mph N/A   Scattered Clouds
11:35 AM 64.8 °F 49.3 °F 57% 29.97 in 10.0 mi West 13.8 mph 23.0 mph N/A   Mostly Cloudy
11:55 AM 65.5 °F 49.1 °F 55% 29.97 in 10.0 mi WNW 13.8 mph 21.9 mph N/A   Mostly Cloudy
12:15 PM 66.2 °F 49.1 °F 54% 29.97 in 10.0 mi WNW 13.8 mph 19.6 mph N/A   Scattered Clouds
12:35 PM 66.9 °F 48.7 °F 52% 29.98 in 10.0 mi WNW 16.1 mph 19.6 mph N/A   Scattered Clouds
12:55 PM 67.3 °F 48.7 °F 51% 29.98 in 10.0 mi NW 15.0 mph - N/A   Scattered Clouds
1:15 PM 67.3 °F 49.1 °F 52% 29.98 in 10.0 mi NW 13.8 mph 20.7 mph N/A   Scattered Clouds
1:35 PM 68.4 °F 49.8 °F 51% 29.98 in 10.0 mi WNW 11.5 mph 20.7 mph N/A   Scattered Clouds
1:55 PM 68.9 °F 48.6 °F 48% 29.98 in 10.0 mi WNW 12.7 mph 18.4 mph N/A   Scattered Clouds
2:15 PM 68.5 °F 48.9 °F 49% 29.98 in 10.0 mi WNW 10.4 mph - N/A   Mostly Cloudy
2:35 PM 68.4 °F 48.2 °F 48% 29.98 in 10.0 mi WNW 12.7 mph 21.9 mph N/A   Mostly Cloudy
2:55 PM 70.9 °F 49.8 °F 47% 29.98 in 10.0 mi WNW 13.8 mph 19.6 mph N/A   Mostly Cloudy
3:15 PM 69.1 °F 49.6 °F 50% 29.98 in 10.0 mi WNW 13.8 mph - N/A   Mostly Cloudy
3:35 PM 71.2 °F 49.3 °F 46% 29.98 in 10.0 mi WNW 13.8 mph 19.6 mph N/A   Mostly Cloudy
3:55 PM 69.3 °F 47.8 °F 46% 29.99 in 10.0 mi WNW 11.5 mph 19.6 mph N/A   Mostly Cloudy
4:15 PM 69.4 °F 48.7 °F 48% 29.99 in 10.0 mi NW 12.7 mph 18.4 mph N/A   Mostly Cloudy
4:35 PM 68.9 °F 48.7 °F 49% 29.99 in 10.0 mi NW 11.5 mph - N/A   Mostly Cloudy
4:55 PM 70.0 °F 49.5 °F 48% 29.99 in 10.0 mi NW 12.7 mph - N/A   Mostly Cloudy
5:15 PM 69.6 °F 49.5 °F 49% 29.99 in 10.0 mi NW 12.7 mph - N/A   Overcast
5:35 PM 68.9 °F 49.3 °F 50% 30.00 in 10.0 mi NW 9.2 mph - N/A   Mostly Cloudy
5:55 PM 68.9 °F 48.7 °F 49% 30.00 in 10.0 mi NW 11.5 mph - N/A   Scattered Clouds
6:15 PM 69.8 °F 49.1 °F 48% 30.01 in 10.0 mi NW 11.5 mph - N/A   Clear
6:35 PM 68.9 °F 48.7 °F 49% 30.01 in 10.0 mi WNW 8.1 mph - N/A   Clear
6:55 PM 68.2 °F 49.1 °F 50% 30.02 in 10.0 mi WNW 8.1 mph - N/A   Clear
7:15 PM 67.5 °F 49.6 °F 53% 30.02 in 10.0 mi WNW 6.9 mph - N/A   Clear
7:35 PM 66.6 °F 49.6 °F 54% 30.02 in 10.0 mi WNW 5.8 mph - N/A   Clear
7:55 PM 64.9 °F 50.2 °F 59% 30.02 in 10.0 mi WNW 4.6 mph - N/A   Clear
8:15 PM 62.6 °F 50.5 °F 65% 30.02 in 10.0 mi West 4.6 mph - N/A   Clear
8:35 PM 62.6 °F 51.1 °F 66% 30.03 in 10.0 mi West 5.8 mph - N/A   Clear
8:55 PM 60.3 °F 51.6 °F 73% 30.03 in 10.0 mi West 5.8 mph - N/A   Clear
9:15 PM 59.9 °F 51.4 °F 74% 30.03 in 10.0 mi West 5.8 mph - N/A   Clear
9:35 PM 59.9 °F 51.4 °F 74% 30.04 in 10.0 mi West 3.5 mph - N/A   Clear
9:55 PM 59.7 °F 51.6 °F 75% 30.05 in 10.0 mi WSW 4.6 mph - N/A   Clear
10:15 PM 58.1 °F 50.9 °F 77% 30.05 in 10.0 mi West 6.9 mph - N/A   Clear
10:35 PM 56.5 °F 49.8 °F 78% 30.06 in 10.0 mi West 8.1 mph - N/A   Clear
10:55 PM 54.9 °F 49.5 °F 82% 30.05 in 10.0 mi West 6.9 mph - N/A   Clear
11:15 PM 54.7 °F 49.6 °F 83% 30.05 in 10.0 mi West 8.1 mph - N/A   Clear
11:35 PM 54.7 °F 49.5 °F 83% 30.05 in 10.0 mi West 8.1 mph - N/A   Clear
11:55 PM 54.9 °F 49.8 °F 83% 30.06 in 10.0 mi West 6.9 mph - N/A   Clear